Regional Weather Roundup
Issued by NWS

Home | Current Version | Previous Version | Text Only | Print | Product List | Glossary Off
Versions: 1 2 3 4 5 6 7 8 9 10 11 12 13 14 15 16 17 18 19 20 21 22 23 24 25 26 27 28 29 30 31 32 33 34 35 36 37 38 39 40 41 42 43 44 45 46 47 48 49 50

000
ASUS45 KBOU 290707
RWRCO

WEATHER ROUNDUP FOR COLORADO
NATIONAL WEATHER SERVICE DENVER/BOULDER CO
100 AM MDT TUE JUL 29 2014

NOTE: "FAIR" INDICATES FEW OR NO CLOUDS BELOW 12000 FEET WITH NO
SIGNIFICANT WEATHER AND/OR OBSTRUCTIONS TO VISIBILITY.

COZ001>005-013-030-031-290800-
...NORTHWEST COLORADO...

CITY           SKY/WX    TMP DP  RH WIND       PRES   REMARKS
CRAIG          CLOUDY    57  52  83 CALM      30.35S
HAYDEN         CLOUDY    64  46  52 NW6       30.35F
MEEKER         CLOUDY    63  53  70 SE8       30.35F
MOUNT WERNER   NOT AVBL
STEAMBOAT SPGS CLOUDY    62  49  64 SE3       30.37S
WALDEN         PTCLDY    52  45  76 SE5       30.46F
$$

COZ006>008-011-290800-
...WEST CENTRAL VALLEYS...

CITY           SKY/WX    TMP DP  RH WIND       PRES   REMARKS
GRAND JUNCTION CLOUDY    67  59  75 S10       30.31R
MONTROSE       CLOUDY    62  58  86 W5        30.38F
EAGLE          MOCLDY    61  54  77 NE3       30.40F
RIFLE          LGT RAIN  63  59  87 NE5       30.32S
DELTA          NOT AVBL
NUCLA          RAIN      61  59  94 N3        30.41S
$$

COZ017>023-064>068-290800-
...SOUTHWEST COLORADO...

CITY           SKY/WX    TMP DP  RH WIND       PRES   REMARKS
DURANGO        CLOUDY    59  57  93 CALM      30.40F
CORTEZ         LGT RAIN  63  60  90 SW9       30.36S
PAGOSA SPRINGS CLOUDY    60  56  88 CALM      30.48S
TELLURIDE      MOCLDY    52  52 100 CALM      30.55F
WOLF CREEK PAS NOT AVBL
$$

COZ009-010-012-014-032>034-037-058>063-290800-
...CENTRAL COLORADO...

CITY           SKY/WX    TMP DP  RH WIND       PRES   REMARKS
ASPEN          CLOUDY    56  53  90 N3        30.45S
BUENA VISTA    CLOUDY    56  54  93 CALM      30.50F
COPPER MTN     CLOUDY    52  41  66 S21       30.74S
BERTHOUD PASS  MOCLDY    41  28  60 E20       30.78F
COTTONWOOD PAS CLOUDY    54  46  76 W6        30.61F
GUNNISON       CLOUDY    55  52  88 CALM      30.52F
KREMMLING      MOCLDY    55  45  67 SE3       30.44S
LEADVILLE      CLOUDY    47  47 100 E3        30.59F
MONARCH PASS   FOG       43  41  93 W20       30.84F VSB 1
SALIDA         CLOUDY    58  55  88 S3        30.53F
SUNLIGHT       CLOUDY    50  46  87 CALM      30.66F
WILKERSON PASS MOCLDY    45  41  87 W7        30.71F
$$

COZ069>075-290800-
...SAN LUIS VALLEY/SANGRE DE CRISTO MOUNTAINS...

CITY           SKY/WX    TMP DP  RH WIND       PRES   REMARKS
ALAMOSA        CLOUDY    56  54  93 W5        30.48F
LA VETA PASS   CLOUDY    48  46  93 SW13G21   30.61S
SAGUACHE       LGT RAIN  55  54  94 NW3       30.51F
$$

COZ035-036-038>040-290800-
...NORTHERN COLORADO FRONT RANGE...

CITY           SKY/WX    TMP DP  RH WIND       PRES   REMARKS
DENVER INTL AP PTCLDY    65  58  78 SW5       30.27F
DMNS CITY PARK   N/A     64  55  73 W1        30.27F
AURORA         PTCLDY    63  57  82 SW8       30.30S
FRONT RANGE AP NOT AVBL
ERIE MUNI ARPT MOCLDY    65  59  79 CALM      30.26F
BOULDER MUN AP MOCLDY    70  57  64 CALM      30.27F
CENTENNIAL     PTCLDY    64  50  60 W10       30.31F
BROOMFIELD     MOCLDY    66  57  72 N8        30.30F
FORT COLLINS   MOCLDY    66  54  63 NE5       30.27S
LONGMONT       MOCLDY    69  59  69 CALM      30.27F
$$

COZ041-046-047-076>085-087-088-290800-
...PIKES PEAK/PALMER DIVIDE AND SOUTHERN FOOTHILLS...

CITY           SKY/WX    TMP DP  RH WIND       PRES   REMARKS
COLO. SPRINGS  CLOUDY    61  58  90 NE10      30.35F
A. F. ACADEMY  MOCLDY    59  57  95 CALM      30.37F
ELLICOTT       MOCLDY    62  59  90 NE3       30.34S
FALCON         MOCLDY    58  57  96 N3        30.40F
FORT CARSON    CLOUDY    63  60  91 N7        30.32F
LIMON          PTCLDY    60  56  86 S7        30.31F
MONUMENT HILL  PTCLDY    55  52  88 SW7       30.38F
TRINIDAD       CLOUDY    65  57  75 W3        30.34F
$$

COZ042>045-048>051-090-091-290800-
...NORTHEAST COLORADO...

CITY           SKY/WX    TMP DP  RH WIND       PRES   REMARKS
GREELEY ARPT   NOT AVBL
AKRON          MOCLDY    68  56  65 S9        30.26F
BURLINGTON     PTCLDY    62  57  83 S9        30.26F
WRAY             N/A     72  58  60 S8        30.23S
STERLING       MOCLDY    70  63  78 CALM      30.21F
HOLYOKE        MOCLDY    63  57  82 SE3       30.23S
FORT MORGAN    MOCLDY    66  56  68 SE5       30.25F
$$

COZ086-089-092>099-290800-
...SOUTHEAST COLORADO...

CITY           SKY/WX    TMP DP  RH WIND       PRES   REMARKS
PUEBLO         MOCLDY    66  61  84 S3        30.25F
LA JUNTA       MOCLDY    69  62  78 CALM      30.24S
LAMAR          PTCLDY    67  62  84 SE6       30.21F
SPRINGFIELD      N/A     64  63  96 S10       30.29F
$$



USA.gov is the U.S. government's official web portal to all federal, state and local government web resources and services.